Volver al catálogo

FREGAT DEB

ActivoUNKNOWN
NORAD 46524·DEBRIS·🇷🇺 Russia

Lanzado Jul 18, 2011 desde Baikonur Cosmodrome

Loading…

Próximos Pases (próximas 24 horas)

TLE

ActualizadoSource: Space-Track

Época: Sep 13, 2026, 21:57 UTC

1 46524U 11037MC  26256.91506581  .00000845  00000-0  23287-2 0  9990
2 46524  51.6241  74.2639 1827219 145.2244 228.2911 10.61369538234685

Sigue FREGAT DEB en tiempo real con AllMySat

Download on the App Store